Location: ?astrovice
(49.6513°N, 14.9287°E)
Time: 11:06:49
(UTC+00:00)

H-2A R/B - Pass Details

Date: 09 April 2020
Orbit: 734 x 836 km, 98.2° (Epoch: 25 May)

Event Time Altitude Azimuth Distance (km) Brightness Sun altitude
Rises 18:16:56 0° 162° (SSE) 3,282 4.9 -5.8°
Reaches altitude 10° 18:19:16 10° 162° (SSE) 2,341 4.2 -6.2°
Maximum altitude 18:24:26 85° 74° (ENE) 780 2.0 -6.9°
Drops below altitude 10° 18:29:30 10° 347° (NNW) 2,294 5.0 -7.7°
Sets 18:31:47 0° 347° (NNW) 3,211 5.8 -8.1°
